Charlottetown, Prince Edward Island

2:27 PM AST on February 13, 2016 (GMT -0400)
Charlottetown

Weather History for CYYG - September, 2012

Change the Weather History Date:

Friday, September 7, 2012

  Actual Average Record
Temperature  
Mean Temperature 63 °F -  
Max Temperature 68 °F 62 °F 81 °F (2015)
Min Temperature 58 °F 46 °F 46 °F (1996)
Degree Days  
Heating Degree Days 2    
Growing Degree Days 13 (Base 50)    
Moisture  
Dew Point 59 °F    
Average Humidity 89    
Maximum Humidity 100    
Minimum Humidity 73    
Precipitation  
Precipitation 0.00 in 0.13 in - ()
Sea Level Pressure  
Sea Level Pressure 29.86 in    
Wind  
Wind Speed 6 mph ()    
Max Wind Speed 15 mph    
Max Gust Speed -    
Visibility 12.5 miles    
Events Rain    
Averages and records for this station are not official NWS values.
T = Trace of Precipitation, MM = Missing Value Source: Averaged Metar Reports

Daily Weather History Graph

Daily Weather History Graph

Search for Another Location

Airport or City:

Trip Planner

Search our weather history database for the weather conditions in past years. The results will help you decide how hot, cold, wet, or windy it might be!

Date:

Astronomy

Sep. 07, 2012 Rise Set
Actual Time 6:40 AM ADT 7:38 PM ADT
Civil Twilight 6:10 AM ADT 8:09 PM ADT
Nautical Twilight 5:33 AM ADT 8:45 PM ADT
Astronomical Twilight 4:55 AM ADT 9:24 PM ADT
Moon 11:06 PM ADT (9/7) 1:54 PM ADT (9/7)
Length of Visible Light 13h 58m
Length of Day
12h 57m
Waning Gibbous, 59% of the Moon is Illuminated
Sep 7
Waning Gibbous
Sep 8
Last Quarter
Sep 15
New
Sep 22
First Quarter
Sep 30
Full

Hourly Weather History & Observations

Time (ADT) Temp. Dew Point Humidity Pressure Visibility Wind Dir Wind Speed Gust Speed Precip Events Conditions
12:00 AM 60.8 °F 60.8 °F 100% 29.72 in 8.0 mi NW 8.1 mph - N/A   Overcast
1:00 AM 60.8 °F 60.8 °F 100% 29.72 in 10.0 mi NNW 6.9 mph - N/A   Overcast
2:00 AM 60.8 °F 60.8 °F 100% 29.73 in 10.0 mi NNW 8.1 mph - N/A   Overcast
3:00 AM 60 °F 60 °F 99% 29.75 in 4 mi NNW 8.1 mph - - Rain Light Drizzle
3:00 AM 59.0 °F 59.0 °F 100% 29.75 in 4.0 mi NNW 9.2 mph - N/A   Light Drizzle
4:00 AM 59.0 °F 59.0 °F 100% 29.77 in 6.0 mi NNW 10.4 mph - N/A   Light Drizzle
5:00 AM 59.0 °F 59.0 °F 100% 29.79 in 6.0 mi North 5.8 mph - N/A   Light Drizzle
6:00 AM 59.0 °F 59.0 °F 100% 29.81 in 10.0 mi North 8.1 mph - N/A   Light Drizzle
7:00 AM 59.0 °F 57.2 °F 94% 29.84 in 12.0 mi North 6.9 mph - N/A   Overcast
7:05 AM 59.0 °F - N/A% - 4.0 mi North 6.9 mph - N/A   Light Drizzle
8:00 AM 59.0 °F 59.0 °F 100% 29.86 in 15.0 mi North 8.1 mph - N/A   Mostly Cloudy
9:00 AM 62 °F 59 °F 88% 29.87 in 15 mi North 9.2 mph - -   Partly Cloudy
9:00 AM 62.6 °F 59.0 °F 88% 29.87 in 15.0 mi North 9.2 mph - N/A   Mostly Cloudy
10:00 AM 64.4 °F 59.0 °F 83% 29.89 in 15.0 mi NNW 8.1 mph - N/A   Mostly Cloudy
10:22 AM 64.4 °F - N/A% - 15.0 mi North 15.0 mph - N/A Rain Light Rain Showers
11:00 AM 62.6 °F 59.0 °F 88% 29.91 in 15.0 mi NW 9.2 mph - N/A Rain Light Rain Showers
12:00 PM 64.4 °F 59.0 °F 83% 29.91 in 15.0 mi NW 4.6 mph - N/A   Mostly Cloudy
1:00 PM 64.4 °F 59.0 °F 83% 29.91 in 15.0 mi NW 4.6 mph - N/A   Overcast
2:00 PM 64.4 °F 57.2 °F 77% 29.91 in 15.0 mi NW 5.8 mph - N/A   Overcast
3:00 PM 65 °F 58 °F 73% 29.91 in 15 mi NW 4.6 mph - -   Partly Cloudy
3:00 PM 64.4 °F 59.0 °F 83% 29.91 in 15.0 mi NW 4.6 mph - N/A   Mostly Cloudy
4:00 PM 66.2 °F 59.0 °F 78% 29.91 in 15.0 mi NNE 2.3 mph - N/A   Mostly Cloudy
5:00 PM 66.2 °F 59.0 °F 78% 29.91 in 15.0 mi West 5.8 mph - N/A   Mostly Cloudy
6:00 PM 66.2 °F 59.0 °F 78% 29.91 in 15.0 mi SW 5.8 mph - N/A   Mostly Cloudy
7:00 PM 66.2 °F 57.2 °F 73% 29.91 in 15.0 mi SW 4.6 mph - N/A   Mostly Cloudy
8:00 PM 64.4 °F 59.0 °F 83% 29.93 in 15.0 mi South 3.5 mph - N/A   Mostly Cloudy
9:00 PM 62 °F 59 °F 87% 29.94 in 15 mi SE 3.5 mph - -   Mostly Cloudy
9:00 PM 62.6 °F 59.0 °F 88% 29.94 in 15.0 mi SE 2.3 mph - N/A   Mostly Cloudy
10:00 PM 60.8 °F 59.0 °F 94% 29.93 in 15.0 mi SE 4.6 mph - N/A   Scattered Clouds
11:00 PM 59.0 °F 59.0 °F 100% 29.95 in 15.0 mi SSW 2.3 mph - N/A   Mostly Cloudy